Time,TemperatureF,DewpointF,PressureIn,WindDirection,WindDirectionDegrees,WindSpeedMPH,WindSpeedGustMPH,Humidity,HourlyPrecipIn,Conditions,Clouds,dailyrainin,SoftwareType,DateUTC
2013-07-12 01:32:00,63.0,56.0,30.08,NNW,340,0.0,3.0,78,0.00,,,0.02,,2013-07-12 05:32:00,
2013-07-12 01:53:00,63.0,56.0,30.08,NNW,338,1.0,3.0,78,0.00,,,0.02,,2013-07-12 05:53:00,
2013-07-12 02:01:00,62.0,55.0,30.08,WNW,282,0.0,3.0,78,0.00,,,0.02,,2013-07-12 06:01:00,
2013-07-12 02:11:00,62.0,55.0,30.08,NNE,19,1.0,3.0,78,0.00,,,0.02,,2013-07-12 06:11:00,
2013-07-12 02:52:00,61.0,55.0,30.08,NNW,327,0.0,4.0,81,0.00,,,0.02,,2013-07-12 06:52:00,
2013-07-12 03:02:00,61.0,55.0,30.09,NNE,20,0.0,2.0,82,0.00,,,0.02,,2013-07-12 07:02:00,
2013-07-12 03:12:00,61.0,56.0,30.09,NNE,19,0.0,3.0,83,0.00,,,0.02,,2013-07-12 07:12:00,
2013-07-12 03:22:00,61.0,56.0,30.09,NNE,22,1.0,4.0,83,0.00,,,0.02,,2013-07-12 07:22:00,
2013-07-12 03:32:00,61.0,56.0,30.09,NNE,22,0.0,2.0,83,0.00,,,0.02,,2013-07-12 07:32:00,
2013-07-12 03:43:00,61.0,56.0,30.08,NNE,22,0.0,1.0,84,0.00,,,0.02,,2013-07-12 07:43:00,
2013-07-12 03:52:00,61.0,56.0,30.09,NNE,22,0.0,1.0,85,0.00,,,0.02,,2013-07-12 07:52:00,
2013-07-12 04:01:00,61.0,57.0,30.09,NNE,19,0.0,2.0,86,0.00,,,0.02,,2013-07-12 08:01:00,
2013-07-12 04:21:00,61.0,57.0,30.09,NNE,18,0.0,2.0,87,0.00,,,0.02,,2013-07-12 08:21:00,
2013-07-12 04:32:00,61.0,57.0,30.10,NNE,18,0.0,2.0,87,0.00,,,0.02,,2013-07-12 08:32:00,
2013-07-12 04:42:00,60.0,56.0,30.10,NNE,18,0.0,1.0,87,0.00,,,0.02,,2013-07-12 08:42:00,
2013-07-12 04:53:00,60.0,56.0,30.10,NNE,18,0.0,1.0,88,0.00,,,0.02,,2013-07-12 08:53:00,
2013-07-12 05:02:00,60.0,57.0,30.10,NNE,18,0.0,1.0,89,0.00,,,0.02,,2013-07-12 09:02:00,
2013-07-12 05:12:00,60.0,57.0,30.11,NNE,19,0.0,2.0,89,0.00,,,0.02,,2013-07-12 09:12:00,
2013-07-12 05:22:00,60.0,57.0,30.11,NNE,19,0.0,0.0,89,0.00,,,0.02,,2013-07-12 09:22:00,
2013-07-12 05:32:00,60.0,57.0,30.11,NNE,19,0.0,0.0,89,0.00,,,0.02,,2013-07-12 09:32:00,
2013-07-12 05:52:00,59.0,56.0,30.12,NNE,19,0.0,0.0,91,0.00,,,0.02,,2013-07-12 09:52:00,
2013-07-12 06:33:00,58.0,56.0,30.12,NNE,19,0.0,0.0,93,0.00,,,0.01,,2013-07-12 10:33:00,
2013-07-12 07:02:00,57.0,56.0,30.13,NNE,19,0.0,0.0,95,0.00,,,0.01,,2013-07-12 11:02:00,
2013-07-12 07:32:00,58.0,57.0,30.13,NNE,19,0.0,0.0,95,0.00,,,0.01,,2013-07-12 11:32:00,
2013-07-12 07:43:00,60.0,58.0,30.13,NNE,19,0.0,0.0,94,0.00,,,0.01,,2013-07-12 11:43:00,
2013-07-12 07:52:00,61.0,59.0,30.13,NNE,19,0.0,1.0,92,0.00,,,0.01,,2013-07-12 11:52:00,
2013-07-12 09:43:00,70.0,63.0,30.15,East,96,0.0,2.0,78,0.00,,,0.01,,2013-07-12 13:43:00,
2013-07-12 09:53:00,71.0,63.0,30.15,NW,323,0.0,2.0,76,0.00,,,0.01,,2013-07-12 13:53:00,
2013-07-12 10:12:00,71.0,61.0,30.15,East,88,0.0,4.0,71,0.00,,,0.01,,2013-07-12 14:12:00,
2013-07-12 10:32:00,73.0,63.0,30.15,East,100,0.0,3.0,72,0.00,,,0.01,,2013-07-12 14:32:00,
2013-07-12 10:44:00,74.0,63.0,30.15,East,94,0.0,3.0,68,0.00,,,0.01,,2013-07-12 14:44:00,
2013-07-12 10:53:00,74.0,63.0,30.15,NW,306,1.0,3.0,69,0.00,,,0.01,,2013-07-12 14:53:00,
2013-07-12 11:02:00,74.0,63.0,30.14,North,349,1.0,3.0,69,0.00,,,0.01,,2013-07-12 15:02:00,
2013-07-12 11:33:00,74.0,60.0,30.14,NW,325,3.0,7.0,62,0.00,,,0.01,,2013-07-12 15:33:00,
2013-07-12 11:53:00,74.0,60.0,30.14,NE,45,4.0,8.0,61,0.00,,,0.01,,2013-07-12 15:53:00,
2013-07-12 12:32:00,75.0,61.0,30.13,NNE,13,4.0,11.0,62,0.00,,,0.01,,2013-07-12 16:32:00,
2013-07-12 12:57:00,75.0,60.0,30.14,NE,42,6.0,9.0,59,0.00,,,0.01,,2013-07-12 16:57:00,
2013-07-12 13:37:00,76.0,60.0,30.13,ENE,77,6.0,13.0,57,0.00,,,0.01,,2013-07-12 17:37:00,
2013-07-12 13:53:00,77.0,61.0,30.13,SE,124,7.0,11.0,57,0.00,,,0.01,,2013-07-12 17:53:00,
2013-07-12 14:34:00,78.0,62.0,30.13,East,101,1.0,7.0,57,0.00,,,0.01,,2013-07-12 18:34:00,
2013-07-12 14:48:00,78.0,59.0,30.13,ENE,64,3.0,9.0,52,0.00,,,0.01,,2013-07-12 18:48:00,
2013-07-12 14:55:00,77.0,61.0,30.13,NNE,31,5.0,8.0,57,0.00,,,0.01,,2013-07-12 18:55:00,
2013-07-12 15:46:00,78.0,60.0,30.12,North,11,5.0,9.0,54,0.00,,,0.01,,2013-07-12 19:46:00,
2013-07-12 15:56:00,78.0,59.0,30.12,ESE,115,3.0,8.0,52,0.00,,,0.01,,2013-07-12 19:56:00,
2013-07-12 16:34:00,78.0,58.0,30.12,NNE,29,3.0,11.0,51,0.00,,,0.01,,2013-07-12 20:34:00,
2013-07-12 17:03:00,79.0,58.0,30.11,ESE,103,3.0,9.0,48,0.00,,,0.01,,2013-07-12 21:03:00,
2013-07-12 17:46:00,79.0,58.0,30.11,East,98,3.0,9.0,48,0.00,,,0.01,,2013-07-12 21:46:00,
2013-07-12 19:04:00,78.0,59.0,30.11,NE,56,3.0,9.0,52,0.00,,,0.01,,2013-07-12 23:04:00,
2013-07-12 19:14:00,78.0,59.0,30.10,ENE,69,2.0,7.0,52,0.00,,,0.01,,2013-07-12 23:14:00,
2013-07-12 19:55:00,77.0,59.0,30.10,ENE,66,6.0,9.0,54,0.00,,,0.01,,2013-07-12 23:55:00,
2013-07-12 20:17:00,77.0,61.0,30.10,East,80,2.0,4.0,57,0.00,,,0.01,,2013-07-13 00:17:00,
2013-07-12 20:33:00,76.0,60.0,30.10,East,98,4.0,7.0,58,0.00,,,0.01,,2013-07-13 00:33:00,
2013-07-12 20:46:00,76.0,61.0,30.11,ENE,57,3.0,7.0,59,0.00,,,0.01,,2013-07-13 00:46:00,
2013-07-12 20:54:00,76.0,61.0,30.11,ENE,71,3.0,5.0,59,0.00,,,0.01,,2013-07-13 00:54:00,
2013-07-12 21:05:00,75.0,60.0,30.11,East,101,3.0,8.0,60,0.00,,,0.01,,2013-07-13 01:05:00,
2013-07-12 21:13:00,75.0,60.0,30.11,ENE,65,3.0,4.0,60,0.00,,,0.01,,2013-07-13 01:13:00,
2013-07-12 21:24:00,74.0,59.0,30.11,ENE,72,2.0,5.0,60,0.00,,,0.01,,2013-07-13 01:24:00,
2013-07-12 21:37:00,74.0,60.0,30.11,ENE,60,1.0,5.0,61,0.00,,,0.01,,2013-07-13 01:37:00,
2013-07-12 21:48:00,73.0,59.0,30.11,ENE,78,2.0,5.0,61,0.00,,,0.01,,2013-07-13 01:48:00,
2013-07-12 21:55:00,72.0,59.0,30.11,ESE,103,3.0,5.0,63,0.00,,,0.01,,2013-07-13 01:55:00,
2013-07-12 22:05:00,71.0,59.0,30.11,East,84,2.0,5.0,65,0.00,,,0.01,,2013-07-13 02:05:00,
2013-07-12 22:15:00,71.0,59.0,30.11,East,92,1.0,3.0,66,0.00,,,0.01,,2013-07-13 02:15:00,
2013-07-12 22:25:00,70.0,59.0,30.12,East,92,0.0,1.0,67,0.00,,,0.01,,2013-07-13 02:25:00,
2013-07-12 22:46:00,70.0,59.0,30.12,ENE,70,2.0,7.0,67,0.00,,,0.01,,2013-07-13 02:46:00,